Showing default

YAOGAN-39 04A, 58141

Orbit data source: Space-Track

YAOGAN-39 04A, 58141 is a payload satellite owned by PLA GAD (CN) in LEO that was launched on Mon, 23 Oct 2023 UTC via a CHANG ZHENG 2D launch vehicle from the Xichang Space Center, China (XSC). Payload-class satellites include a variety of spacecraft equipped with specific instruments for various scientific and technological missions. These include communications satellites like Starlink; space stations such as the ISS; scientific satellites like the Hubble; Earth observation satellites from companies like Planet Labs, Umbra, and HawkEye 360; GPS; miniature CubeSats for education and research; and military/defense satellites.

Loading next visibility...
Identifier
58141, 2023-163A
Orbit
LEO
Country
Flag of CNCN / PRC
Related business
Manufacturer
DFH
Mission
Operational Defense Sigint
Bus & Motor
Unknown
Mass
~300 kg wet, ~300 kg dry
Launch date (UTC)
2023-10-23 (2 years ago)
Launch vehicle
CHANG ZHENG 2D
Launch site
Xichang Space Center, China (XSC)
Object type
Payload
Rocket body
Debris
Shape & HBR
Box + 2 Pan, 2.5 m
Radar Cross Section
11.063 m², Large (>1 m²)

Expand to show TLE details & history
Last TLE update: 9 hours ago

TLE from 9 hours ago
0 YAOGAN-39 04A
1 58141U 23163A   25301.64174228  .00017007  00000-0  70923-3 0  9998
2 58141  35.0017   0.8969 0005627  91.4648 268.6712 15.22828349112258
Epoch: 2025-10-28T15:24Z
TLE epoch observation values (Epoch: 2025-10-28T15:24:06.532Z)
Latitude
0.00004°
Longitude
92.64343°
Altitude
496.313 km
Speed
7.619 km/s
True Right ascension
00h 03m 35s
True Declination
0° 00' 00"
Sunlit
Object was in full shadow at epoch
Visualization orbit readout
Latitude
Unknown
Longitude
Unknown
Altitude
Unknown
Speed
Unknown
Apparent Right ascension
Unknown
Apparent Declination
Unknown
Sunlit
N/A
Visualization observer readout
Local Sidereal Time
19:56:21
Azimuth
Unknown
Elevation
Unknown
Doppler factor
Unknown
Orbital elements
Apogee altitude
504.435 km
Perigee altitude
496.693 km
Semi-major axis
6,878.701 km
Eccentricity
0.00056
Inclination
35.0017°
RAAN
0.8969°
Arg. of periapsis
91.4648°
True anomaly
268.60674°
Mean anomaly
268.6712°
Eccentric anomaly
268.63897°
Mean motion
3.80438 °/min
Orbital period
94.63 mins
BSTAR
0.00070923
Loading maneuver chart data...
Computing Atmospheric mass density...
Loading historical data...
Loading historical data...
Loading historical data...
Loading historical data...
Loading historical data...
Loading historical data...
Loading historical data...
Other satellites on launch #163 in the year 2023 (2023-10-23 UTC)

Documentation

Showing up to 5 results
|